Location: Kalberh�ni
(46.4610°N, 7.2453°E)
Time: 07:46:06
(UTC+00:00)

Cosmos 1606 Rocket - Pass Details

Date: 23 October 2021
Orbit: 601 x 633 km, 82.5° (Epoch: 30 November)

Event Time Altitude Azimuth Distance (km) Brightness Sun altitude
Rises 18:38:15 0° 178° (S) 2,914 6.9 -22.7°
Enters shadow 18:38:37 - 178° (S) 2,765 6.8 -22.7°
Exits shadow 18:50:59 - 13° (NNE) 2,696 6.8 -24.9°
Sets 18:51:34 0° 13° (NNE) 2,932 7.0 -25.0°
